Hourly Data Report for August 05, 2017

TORONTO CITY
ONTARIO

43°40'00.000" N
79°24'00.000" W
112.50 m
6158355
71508
XTO

Download Data

Hourly Data (August 2017)
Hourly Data Report for August 5, 2017
TIME
LST
Temp Definition
°C
Dew Point Definition
°C
Rel Hum Definition
%
Precip. Amount Definition
mm

Wind Dir Definition
10's deg

Wind Spd Definition
km/h
Visibility Definition
km
Stn Press Definition
kPa
Hmdx Definition


Wind Chill Definition


Weather Definition


00:00 17.5 11.4 68 0.0 LegendMM LegendMM   99.44     LegendNANA
01:00 17.2 11.5 69 0.0 LegendMM LegendMM   99.41     LegendNANA
02:00 16.8 11.8 72 0.0 LegendMM LegendMM   99.38     LegendNANA
03:00 16.6 12.0 74 0.0 LegendMM LegendMM   99.38     LegendNANA
04:00 16.9 12.3 74 0.0 LegendMM LegendMM   99.39     LegendNANA
05:00 16.5 12.2 76 0.0 LegendMM LegendMM   99.42     LegendNANA
06:00 16.6 12.1 75 0.0 LegendMM LegendMM   99.48     LegendNANA
07:00 16.8 12.3 75 0.0 LegendMM LegendMM   99.55     LegendNANA
08:00 17.3 12.3 72 0.0 LegendMM LegendMM   99.61     LegendNANA
09:00 18.2 12.4 69 0.0 LegendMM LegendMM   99.65     LegendNANA
10:00 19.4 12.4 64 0.0 LegendMM LegendMM   99.69     LegendNANA
11:00 16.8 13.7 82 0.6 LegendMM LegendMM   99.76     LegendNANA
12:00 19.6 11.7 60 0.0 LegendMM LegendMM   99.77     LegendNANA
13:00 19.6 10.7 56 0.0 LegendMM LegendMM   99.81     LegendNANA
14:00 20.9 9.4 48 0.0 LegendMM LegendMM   99.85     LegendNANA
15:00 21.0 9.1 47 0.0 LegendMM LegendMM   99.93     LegendNANA
16:00 20.5 8.5 46 0.0 LegendMM LegendMM   100.01     LegendNANA
17:00 20.4 8.2 45 0.0 LegendMM LegendMM   100.07     LegendNANA
18:00 20.1 7.5 44 0.0 LegendMM LegendMM   100.11     LegendNANA
19:00 19.6 7.6 46 0.0 LegendMM LegendMM   100.19     LegendNANA
20:00 18.8 7.5 48 0.0 LegendMM LegendMM   100.23     LegendNANA
21:00 17.7 8.4 54 0.0 LegendMM LegendMM   100.25     LegendNANA
22:00 16.5 9.1 62 0.0 LegendMM LegendMM   100.26     LegendNANA
23:00 16.3 9.2 63 0.0 LegendMM LegendMM   100.29     LegendNANA

Notes on Data Quality.

Legend

  • E = Estimated
  • M = Missing
  • NA = Not Available*
  • [empty] = Indicates an unobserved value
Date modified: